RH
6 6 6 6 5 5 5 5 5 5 4 4 4 4 4 4 4 4 4 4 4 4 4 4 4 4 4 4 4 4 4 3 3 3 3 3 2 3 2 2 2 2 2 2 2 2 2 2 2 2 3 3
6 6 6 6 6 5 5 5 5 5 5 4 4 4 4 4 4 4 4 4 4 4 4 4 4 4 4 4 4 4 4 3 3 3 3 3 3 3 2 3 2 2 2 2 3 2 3 3 3 3 3 3
7 6 6 6 6 5 5 5 5 5 5 5 4 4 4 4 4 4 4 4 4 4 4 4 4 4 4 4 4 4 4 3 3 3 3 3 3 3 3 3 3 3 3 3 3 3 3 3 4 4 4 4
7 6 6 6 6 6 6 6 6 5 5 5 5 4 5 4 4 4 4 4 4 4 4 4 4 4 4 4 4 4 4 3 3 3 3 3 3 3 3 3 3 3 3 4 4 4 4 4 5 5 5 5
7 7 6 6 6 6 6 6 6 6 6 5 5 5 5 5 5 4 4 4 4 5 4 5 4 4 4 4 4 4 4 4 4 4 4 4 4 4 4 4 4 4 5 5 5 5 5 5 6 6 7 7
8 8 7 7 7 7 7 7 7 6 6 6 5 5 5 5 5 5 5 5 5 5 5 5 5 5 5 4 4 4 4 4 4 4 4 4 5 5 5 5 6 6 6 6 6 7 7 7 7 7 8 8
8 8 8 8 8 8 8 7 7 7 6 6 6 5 5 5 5 5 5 5 5 5 5 5 5 5 5 5 4 4 5 5 5 5 5 6 6 6 6 6 7 7 8 8 8 9 9 9 9 9 9 9
9 9 9 9 9 9 8 8 8 7 7 6 6 6 5 5 5 5 5 5 5 5 5 5 5 5 5 5 5 5 5 6 6 6 7 7 7 7 7 8 8 9 11 11 12 12 12 12 11 11 11 11
10 10 9 9 9 9 8 8 8 7 7 6 6 6 6 6 5 6 6 6 6 6 6 6 6 6 6 6 6 6 7 7 8 8 8 9 9 9 9 10 11 12 14 15 16 16 15 15 14 14 13 12
11 10 10 10 9 9 9 8 8 7 7 6 6 6 6 6 6 6 6 6 6 6 6 6 6 6 6 7 7 8 8 9 9 10 11 12 12 12 13 13 14 15 17 19 19 19 18 17 17 17 16 15
11 11 10 10 10 9 9 8 8 7 7 7 7 7 7 7 7 7 7 7 7 7 8 8 8 8 8 9 9 9 10 11 12 13 14 15 16 16 16 16 17 18 19 21 22 21 21 20 20 19 19 18
11 11 11 10 10 9 9 8 8 8 8 8 8 8 8 8 8 9 9 9 9 9 10 10 10 10 11 11 12 12 12 13 14 16 18 18 19 19 19 20 20 20 20 21 21 21 21 22 24 24 24 23
11 11 10 10 9 9 9 9 8 9 9 9 9 9 9 10 10 11 11 11 12 12 13 13 13 13 14 14 14 15 15 17 18 20 23 23 22 21 22 22 22 23 23 21 21 20 20 22 25 28 30 31
11 10 10 10 10 9 9 9 9 10 10 11 11 11 12 12 13 14 15 15 16 16 17 17 17 17 17 18 18 18 20 21 22 23 27 29 26 23 23 25 25 25 24 22 21 20 21 22 25 29 32 35
11 10 10 10 10 10 10 11 12 12 13 14 14 14 15 16 17 18 20 20 21 21 21 22 22 23 23 23 23 22 23 24 24 25 27 30 30 26 24 25 26 26 26 22 21 21 21 23 26 29 32 34
11 11 11 11 11 11 12 13 14 16 16 17 18 19 20 22 23 24 25 25 26 26 27 28 28 29 29 28 27 25 25 25 25 25 26 28 30 29 26 25 26 27 27 24 22 22 22 23 25 28 31 33
12 12 12 13 14 15 16 18 19 20 22 23 25 27 28 29 30 31 31 31 32 32 33 34 34 34 34 31 29 27 25 25 24 24 25 27 29 30 27 25 26 26 27 25 22 22 23 23 23 25 27 29
14 15 16 17 18 20 21 23 25 26 29 31 33 35 36 37 37 37 37 38 39 40 40 40 39 38 37 34 30 27 24 23 22 22 23 25 27 29 29 27 26 26 26 26 24 23 24 24 23 22 23 24
18 19 21 23 24 26 28 30 32 35 38 40 42 43 43 44 44 45 45 46 47 47 45 43 41 39 36 32 28 25 23 21 21 21 22 22 23 25 28 29 28 27 26 26 26 24 24 24 24 23 22 21
24 26 28 30 31 33 35 38 41 44 47 49 50 51 52 53 54 55 55 54 52 49 46 42 38 35 32 29 27 26 25 24 24 24 23 22 22 22 23 25 26 27 26 26 27 26 25 24 24 24 23 22
31 33 35 37 39 41 44 47 51 55 58 60 62 63 64 65 64 63 60 56 52 47 43 38 35 34 33 31 31 30 28 27 25 23 22 22 21 20 20 21 22 23 24 25 25 25 25 24 24 23 23 22
38 40 42 44 47 50 54 59 64 68 71 73 73 74 74 72 68 63 58 53 47 43 39 36 35 36 35 34 31 29 26 24 23 21 20 19 20 20 19 19 20 20 20 22 22 23 23 23 23 22 22 22
45 47 49 53 57 63 69 74 78 80 82 83 82 80 76 70 64 57 52 47 43 40 39 37 35 34 33 30 28 28 29 30 30 30 29 29 30 29 26 24 24 22 20 19 20 21 22 22 21 22 22 22
53 55 58 63 70 78 85 88 90 91 90 89 86 81 74 67 61 55 51 48 45 42 39 36 34 35 37 40 42 46 48 50 50 49 48 47 46 46 44 41 39 35 29 25 24 25 25 25 24 23 23 23
61 64 69 77 85 93 98 99 100 100 98 94 88 82 75 69 65 62 59 55 49 43 38 40 46 53 60 63 63 63 62 61 59 57 56 54 53 52 51 50 49 46 41 36 34 33 33 34 33 30 29 30
69 74 82 91 97 101 102 102 102 103 102 98 93 89 84 82 80 75 68 59 52 50 53 61 68 71 72 69 66 62 60 57 55 54 52 51 50 49 47 46 46 45 43 41 39 39 38 38 39 37 36 37
79 86 94 99 101 100 101 102 102 103 102 100 98 98 96 93 89 81 72 67 65 69 75 77 76 72 67 63 59 55 53 51 49 48 46 45 43 42 41 40 40 39 38 38 37 37 36 37 38 38 38 38
90 96 100 101 101 101 101 102 101 100 100 100 99 98 96 91 86 80 78 80 82 83 82 77 71 65 61 57 54 51 49 47 46 43 41 40 38 37 36 35 34 33 33 32 32 32 32 32 33 33 35 35
96 100 102 103 104 103 101 99 97 97 99 99 98 94 91 89 87 87 89 90 89 85 79 73 67 62 58 56 54 52 48 46 44 43 41 39 36 33 30 29 27 25 24 23 24 24 24 25 26 26 27 29
99 101 103 104 104 103 102 101 100 101 102 101 100 99 97 97 98 99 99 96 90 82 75 69 65 61 58 58 57 54 50 47 46 45 41 35 30 25 22 20 19 17 15 15 16 16 16 17 17 18 18 19
101 103 104 104 103 102 101 101 103 104 104 102 102 103 102 102 101 98 94 88 81 75 69 66 63 62 61 61 59 55 52 50 47 41 33 24 18 15 13 14 14 13 12 12 12 12 12 13 13 13 13 13
Wind_Speed
43 43 44 44 44 44 44 44 44 44 45 45 46 47 48 48 49 49 49 50 50 51 51 52 52 52 53 53 54 55 56 56 57 58 59 59 60 61 62 63 64 66 67 68 68 69 69 69 68 68 67 66
44 44 44 45 45 45 45 45 46 46 47 47 48 49 49 50 50 51 51 51 52 52 53 53 54 54 54 55 56 56 57 58 58 59 60 60 61 62 63 65 66 68 69 69 70 70 69 69 68 67 67 67
45 45 46 46 46 47 47 47 47 48 48 49 50 51 51 51 52 52 53 53 53 54 54 55 55 56 56 57 57 58 58 59 59 60 60 61 62 64 65 66 68 69 70 70 70 69 69 68 67 66 66 66
47 47 47 48 48 48 48 49 49 50 50 51 52 52 53 53 53 54 54 54 55 56 56 57 57 58 58 59 59 59 59 60 60 60 61 62 63 64 65 67 68 69 70 70 69 69 68 67 66 65 65 64
48 49 49 49 49 50 50 50 51 51 52 53 54 54 54 54 55 55 56 56 57 57 58 59 59 59 60 60 60 60 60 60 60 61 62 63 64 64 65 66 67 68 68 68 68 68 67 66 66 64 63 63
49 50 50 51 51 51 51 52 52 53 54 54 55 55 55 56 56 57 57 58 58 59 60 60 60 60 61 61 60 60 60 60 61 61 62 63 63 64 64 65 65 65 65 65 65 65 65 65 64 63 62 62
50 51 52 52 52 52 53 54 54 55 55 56 56 57 57 57 58 58 59 59 60 60 61 61 61 61 61 61 60 60 60 60 60 61 62 62 63 63 63 63 63 62 62 62 61 61 62 62 62 62 61 61
52 52 53 53 54 54 55 55 56 56 57 57 58 58 58 59 59 60 60 61 61 62 62 62 62 62 62 61 60 60 59 60 60 60 61 62 62 61 61 60 59 58 57 57 57 57 58 58 59 59 59 59
53 54 55 55 55 56 56 57 57 58 58 59 59 60 60 60 61 61 61 62 62 63 63 63 63 63 62 61 60 59 59 59 59 60 60 60 59 59 59 57 56 54 53 52 52 52 53 54 55 55 56 56
55 56 56 56 57 58 58 59 59 60 60 60 61 61 61 62 62 62 62 63 63 63 64 64 63 63 62 61 60 60 59 59 59 58 58 57 57 56 56 55 53 51 49 48 48 48 49 50 51 51 52 52
57 57 58 59 59 60 60 61 61 61 61 61 62 62 62 63 63 63 63 63 63 64 64 64 63 63 62 61 61 60 59 58 58 57 56 55 54 54 53 52 51 49 47 46 46 46 46 47 48 48 48 49
59 59 60 61 61 62 62 62 62 62 62 62 62 63 63 63 63 63 63 63 63 63 63 63 63 62 62 61 60 60 58 57 56 55 54 53 53 53 52 51 50 48 47 47 46 46 46 46 46 47 47 47
61 62 62 63 63 63 63 63 63 63 63 63 63 63 63 63 63 63 63 63 63 63 63 63 63 62 62 61 60 58 57 56 54 54 53 53 53 52 52 52 50 49 48 48 47 47 46 46 46 46 46 46
63 63 64 64 64 64 64 64 63 63 63 63 63 63 64 63 63 63 62 62 62 62 63 63 63 62 61 60 58 57 56 54 53 53 53 53 53 53 53 52 52 50 49 49 49 48 47 46 46 46 46 47
64 65 64 64 64 64 64 63 63 63 63 63 63 63 63 63 62 62 62 62 62 62 62 62 62 61 60 58 57 56 55 54 54 54 54 53 53 53 53 53 53 52 51 50 49 49 48 47 47 47 47 47
65 65 64 64 64 63 63 63 63 63 63 63 63 63 63 62 62 62 62 62 62 62 61 61 60 60 59 58 57 57 56 55 55 55 55 55 54 53 53 54 55 54 53 51 49 48 48 47 47 47 48 48
64 64 63 63 63 63 62 63 63 63 63 62 62 62 62 61 61 61 62 62 62 61 61 60 59 59 59 58 58 58 57 56 56 56 56 56 55 54 53 54 56 56 55 54 52 50 49 48 48 48 48 49
63 62 62 62 62 62 62 62 62 62 62 62 61 61 61 61 61 61 61 61 61 61 60 60 59 59 59 59 59 59 58 58 57 56 56 56 56 55 54 54 56 57 57 56 55 53 52 50 49 49 49 49
61 61 61 61 61 61 61 62 62 61 61 61 60 61 61 61 61 62 61 61 61 60 60 60 60 60 60 60 60 60 59 59 58 57 57 57 57 56 56 55 56 57 58 58 58 57 56 55 53 52 51 51
60 60 60 60 61 61 61 61 61 61 60 60 60 60 61 61 61 61 61 61 61 61 61 61 61 61 61 61 61 61 61 60 60 59 59 58 58 58 58 57 57 58 58 59 59 59 59 59 57 56 54 53
59 59 60 60 61 61 61 61 60 60 60 60 60 60 61 62 62 62 62 62 62 62 62 62 62 62 63 63 63 63 63 63 63 62 61 61 60 60 59 59 59 59 59 59 60 60 60 61 60 59 58 57
59 59 60 61 61 61 60 60 59 59 59 60 61 61 62 62 63 63 63 63 63 63 63 64 64 64 65 65 65 65 64 64 64 64 63 62 61 61 60 60 60 60 60 60 60 60 61 62 62 61 61 60
59 60 60 61 61 60 59 59 59 60 60 61 62 62 63 64 64 64 65 65 64 65 65 66 66 66 66 66 66 66 65 65 64 64 63 63 62 61 61 61 61 60 61 61 61 61 61 62 63 63 62 62
60 60 61 61 60 60 59 59 60 61 61 62 63 64 65 65 66 66 66 66 67 67 67 67 67 66 66 66 66 66 65 65 65 65 65 64 63 63 63 62 62 62 62 62 62 62 62 62 63 63 64 64
61 61 61 60 60 60 60 60 61 61 62 63 64 65 66 67 67 68 68 68 69 69 69 68 67 66 66 66 66 66 66 66 66 66 67 66 66 65 65 64 64 65 65 64 64 64 63 63 63 64 64 65
61 61 60 60 60 60 60 61 62 63 63 64 65 66 67 68 68 69 70 70 71 70 69 68 67 67 66 66 66 66 66 66 66 67 68 68 68 68 67 66 66 67 67 67 66 66 66 65 65 65 66 66
61 61 60 61 61 61 62 62 63 64 65 65 66 67 68 69 70 71 71 71 72 71 70 69 68 67 67 67 67 67 67 67 66 66 67 68 69 69 68 68 67 68 68 68 67 68 68 67 67 66 66 68
61 61 61 61 62 63 64 65 65 66 67 67 68 69 70 71 72 72 72 72 72 71 70 70 69 69 68 68 68 68 67 67 66 66 66 67 68 68 68 67 67 67 67 67 68 68 68 68 68 67 66 67
61 62 62 63 64 65 66 67 68 68 69 70 71 71 72 73 73 73 73 72 71 71 70 70 70 69 68 68 68 68 67 67 66 66 66 67 67 67 68 67 67 66 67 67 68 68 68 69 69 68 67 67
63 63 64 65 66 66 67 67 68 69 70 71 71 72 73 73 73 73 72 71 70 70 69 69 69 70 69 69 68 68 68 67 67 67 67 67 67 67 68 68 68 67 67 68 68 68 69 70 70 70 69 69
65 66 66 67 68 68 68 69 69 70 71 72 72 72 72 72 71 71 70 70 69 69 69 70 70 71 70 70 69 69 69 69 69 69 68 68 68 68 69 70 70 69 70 70 70 70 71 72 72 73 72 72
Wind_Direction
276 276 277 277 277 277 277 277 276 276 276 275 275 275 275 275 276 276 277 278 278 279 279 279 280 280 280 280 280 281 281 280 280 280 279 279 279 279 279 279 279 278 277 276 274 273 271 270 268 267 266 265
277 277 277 277 278 278 278 278 278 277 277 277 276 276 276 277 277 277 278 278 279 279 279 279 280 280 280 280 281 281 281 281 280 280 280 280 280 280 280 281 280 280 278 276 274 272 270 268 267 265 264 263
278 278 278 279 279 279 279 279 279 278 278 277 277 277 277 277 278 278 278 278 278 279 279 279 280 280 280 281 281 281 281 281 281 280 280 281 281 281 281 281 281 280 278 276 274 271 269 267 265 263 261 260
279 279 280 280 280 280 280 280 279 279 278 277 277 277 277 277 277 278 278 278 278 279 279 280 280 281 281 282 282 282 282 281 281 281 281 281 281 281 281 281 280 279 277 275 273 270 268 265 263 261 259 257
280 280 280 280 281 281 280 280 279 278 278 277 277 277 278 278 278 278 278 278 279 279 280 280 281 282 282 282 283 283 282 282 282 282 282 282 282 282 281 280 279 278 276 274 272 269 267 264 261 259 256 255
280 280 280 281 281 280 280 279 279 278 278 278 278 279 279 279 278 278 278 279 279 280 280 281 282 283 283 283 283 283 283 282 282 282 282 282 282 281 281 280 278 276 275 272 270 268 265 263 260 258 255 253
280 280 281 281 281 280 280 280 280 280 280 280 280 280 280 279 279 279 279 280 280 281 282 282 283 284 284 284 283 283 282 282 282 282 282 282 281 280 280 278 277 275 273 271 268 266 264 262 259 257 254 252
280 281 281 281 281 282 282 282 282 282 282 282 281 281 280 280 280 280 281 281 282 283 283 284 284 284 284 283 283 282 282 282 282 282 281 281 280 279 278 277 275 273 271 268 267 265 263 261 259 257 255 253
280 281 281 282 283 283 283 283 283 283 282 282 282 281 281 281 281 282 282 283 284 284 285 285 284 284 283 283 282 282 282 282 281 281 280 280 279 278 277 275 273 270 268 266 265 264 263 262 260 259 257 254
281 282 283 283 283 283 283 283 283 282 282 282 282 282 282 283 283 283 284 284 284 285 284 284 284 283 283 282 282 282 282 282 281 280 279 278 277 276 274 272 270 267 265 264 263 263 262 261 260 260 258 256
282 283 283 283 283 283 283 283 283 283 283 283 283 283 283 283 283 284 284 284 284 284 284 283 283 282 282 282 282 282 282 281 280 279 278 276 275 273 271 269 267 266 264 263 262 262 262 261 260 259 259 258
282 283 283 283 283 283 283 283 283 283 283 283 282 282 282 283 283 283 283 284 284 283 283 282 282 282 282 282 283 283 282 280 279 278 276 275 273 270 268 266 265 265 264 263 262 263 263 262 261 260 259 258
282 282 283 283 283 283 283 283 283 283 282 282 282 282 282 282 283 283 283 283 283 283 282 282 282 282 283 283 283 282 281 279 278 277 276 274 272 269 266 264 264 264 265 264 263 263 263 263 262 261 260 259
282 283 283 283 283 283 283 283 282 282 282 282 282 282 282 282 283 283 283 283 282 282 282 282 282 283 283 283 282 281 279 278 277 276 275 273 271 268 265 263 263 264 265 265 265 264 263 263 262 262 262 261
283 283 283 283 283 283 283 282 282 282 282 282 282 282 282 283 283 283 282 282 282 282 282 282 282 282 282 281 280 279 278 277 276 275 274 272 271 268 264 263 263 263 264 265 265 265 264 263 263 262 262 262
283 282 282 283 283 283 282 282 282 282 282 282 282 282 282 283 282 282 282 281 281 281 281 281 281 281 280 279 279 278 277 276 276 274 273 272 271 268 264 262 262 262 263 263 264 264 265 264 263 263 262 262
282 282 283 283 282 282 282 282 282 282 282 282 282 282 282 282 281 281 281 280 280 280 280 280 280 279 279 279 278 278 277 277 276 275 274 272 271 269 265 262 262 262 262 262 262 263 264 264 264 263 262 262
282 283 282 282 282 281 281 281 281 281 281 281 281 281 281 281 280 280 279 279 279 279 279 279 279 279 279 279 278 278 277 277 276 275 274 273 272 270 267 264 262 261 261 261 261 261 262 263 263 263 263 262
282 282 281 281 281 280 280 280 280 280 280 280 280 280 280 279 279 279 279 279 279 278 278 278 278 278 278 278 278 278 278 277 277 276 275 274 273 271 269 266 264 262 261 261 261 261 262 262 262 263 263 262
281 281 280 280 279 279 280 280 280 280 280 280 279 279 279 279 278 278 278 278 278 278 278 278 278 278 278 278 278 278 278 278 278 277 276 275 273 272 271 269 266 264 262 261 261 262 262 262 262 262 262 262
280 279 279 279 279 279 279 280 280 280 279 279 279 278 278 278 277 277 277 277 277 277 277 277 277 278 278 278 278 278 278 278 278 277 276 275 274 272 270 269 268 266 264 262 261 261 261 262 262 263 263 262
279 279 279 279 279 279 279 279 279 278 278 277 277 277 276 276 276 276 276 276 276 276 276 277 277 277 278 278 278 278 278 277 277 276 275 275 274 272 271 269 268 266 265 263 262 262 261 261 262 262 263 263
278 278 278 279 279 279 278 278 277 277 276 276 276 276 276 276 276 276 276 276 276 276 276 277 277 278 278 278 278 278 277 277 276 276 275 274 274 273 272 271 269 268 266 264 263 263 262 261 261 262 262 262
278 278 279 279 279 278 277 276 276 276 276 276 276 276 276 276 276 276 277 277 277 277 278 278 279 279 279 278 278 278 278 277 277 276 276 275 274 273 273 272 272 270 268 266 265 264 263 263 262 262 262 261
278 279 279 278 277 276 276 275 275 275 276 276 276 277 277 277 277 277 278 278 278 279 279 279 279 279 278 278 277 277 277 277 277 276 276 275 274 274 273 272 272 272 270 268 267 266 265 264 264 263 262 262
278 278 278 277 276 275 275 275 275 275 276 276 277 277 277 278 278 278 278 279 279 279 279 279 279 278 278 277 276 276 275 275 275 274 274 274 274 273 273 272 271 271 271 270 269 268 266 266 265 264 264 263
278 277 276 275 274 274 274 274 274 275 275 276 276 276 276 276 277 277 278 278 279 279 278 278 277 277 276 276 276 275 275 275 274 274 273 273 273 273 272 272 271 270 270 269 268 268 267 266 265 265 265 264
276 275 274 274 273 273 273 273 273 274 274 274 274 274 274 275 275 276 277 277 278 278 278 278 277 277 277 277 277 277 276 276 276 276 275 274 274 273 272 272 271 270 270 269 268 267 266 266 265 264 264 263
275 274 273 273 273 273 274 274 274 274 274 274 274 274 275 276 277 277 277 278 278 279 279 279 279 279 279 279 279 279 278 278 278 278 278 277 275 274 273 272 271 271 271 270 268 268 267 265 264 263 262 262
274 274 273 273 273 273 274 274 274 274 274 274 275 276 276 277 277 277 277 278 278 279 280 280 280 281 281 281 281 281 281 280 280 280 279 278 277 275 274 273 272 272 272 271 270 269 269 267 266 264 263 262
275 274 274 273 273 273 273 273 273 273 273 274 274 275 275 275 276 276 277 278 279 279 280 281 282 282 282 283 283 283 283 282 281 280 279 278 277 276 275 274 274 273 273 273 272 271 271 270 269 268 266 265